Location: Kitt Peak
(31.9639°N, 111.5992°W)
Time: 15:09:27
(UTC-07:00)

SRMSAT - Pass Details

Date: 16 December 2025
Orbit: 846 x 863 km, 20.0° (Epoch: 13 January)

Event Time Altitude Azimuth Distance (km) Brightness Sun altitude
Exits shadow 04:38:25 21° 170° (S) 1,825 ? -33.4°
Drops below altitude 10° 04:42:39 10° 124° (ESE) 2,465 ? -32.5°
Sets 04:45:50 0° 108° (ESE) 3,405 ? -31.8°
